This is the latest recevied weather packets stored in our database for station/object WX5HOT. If no packets are shown the sender has not sent any weather packets the latest 10 day(s).
| Time | Temp. | Humidity | Pressure | Rain* | Wind** | Luminosity | Snow |
|---|---|---|---|---|---|---|---|
| 1777820572 | 15.56° C | 40% | 1071.8 hPa | 0 mm | - | 664 W/m² | - |
| 1777820268 | 15.56° C | 43% | 1071.9 hPa | 0 mm | - | 650 W/m² | - |
| 1777819966 | 15.56° C | 46% | 1071.7 hPa | 0 mm | - | 632 W/m² | - |
| 1777819663 | 15.56° C | 49% | 1071.8 hPa | 0 mm | - | 617 W/m² | - |
| 1777819361 | 15.56° C | 45% | 1071.8 hPa | 0 mm | - | 600 W/m² | - |
| 1777819058 | 15° C | 49% | 1071.9 hPa | 0 mm | - | 584 W/m² | - |
| 1777818755 | 15° C | 48% | 1071.8 hPa | 0 mm | - | 567 W/m² | - |
| 1777818451 | 15° C | 42% | 1071.7 hPa | 0 mm | - | 550 W/m² | - |
| 1777818148 | 15° C | 47% | 1071.8 hPa | 0 mm | - | 532 W/m² | - |
| 1777817845 | 14.44° C | 46% | 1071.9 hPa | 0 mm | - | 514 W/m² | - |
| 1777817543 | 14.44° C | 45% | 1071.7 hPa | 0 mm | - | 494 W/m² | - |
| 1777817239 | 14.44° C | 48% | 1071.8 hPa | 0 mm | - | 476 W/m² | - |
| 1777816936 | 14.44° C | 47% | 1071.7 hPa | 0 mm | - | 454 W/m² | - |
| 1777816633 | 13.89° C | 48% | 1071.8 hPa | 0 mm | - | 434 W/m² | - |
| 1777816330 | 13.89° C | 47% | 1071.7 hPa | 0 mm | - | 414 W/m² | - |
| 1777816027 | 13.89° C | 46% | 1071.8 hPa | 0 mm | - | 395 W/m² | - |
| 1777815725 | 13.89° C | 46% | 1071.7 hPa | 0 mm | - | 376 W/m² | - |
| 1777815422 | 13.33° C | 45% | 1071.8 hPa | 0 mm | - | 356 W/m² | - |
| 1777815119 | 13.33° C | 45% | 1071.6 hPa | 0 mm | - | 337 W/m² | - |
| 1777814815 | 13.33° C | 45% | 1071.8 hPa | 0 mm | - | 316 W/m² | - |
| 1777814511 | 13.33° C | 46% | 1071.8 hPa | 0 mm | - | 292 W/m² | - |
| 1777814209 | 13.33° C | 45% | 1071.4 hPa | 0 mm | - | 274 W/m² | - |
| 1777813906 | 13.33° C | 45% | 1071.6 hPa | 0 mm | - | 257 W/m² | - |
| 1777813603 | 12.78° C | 45% | 1071.6 hPa | 0 mm | - | 238 W/m² | - |
| 1777813301 | 12.78° C | 45% | 1071.7 hPa | 0 mm | - | 218 W/m² | - |
* Rain latest hour (hover to see other rain measurements)
** Current wind speed in m/s (hover to see current wind gust speed)